Location: Corona
(40.7470°N, 73.8601°W)
Time: 04:24:40
(UTC+00:00)

Meteor 2-9 Rocket - Pass Details

Date: 22 September 2019
Orbit: 791 x 896 km, 81.3° (Epoch: 19 October)

Event Time Altitude Azimuth Distance (km) Brightness Sun altitude
Rises 23:11:26 0° 189° (S) 3,469 7.5 -4.3°
Reaches altitude 10° 23:13:53 10° 189° (S) 2,523 6.8 -4.8°
Maximum altitude 23:19:38 86° 279° (W) 869 4.4 -5.9°
Drops below altitude 10° 23:25:16 10° 9° (N) 2,472 6.6 -6.9°
Sets 23:27:40 0° 10° (N) 3,394 7.3 -7.4°
